Flag for U.S.A. Weather past 2 weeks in Mobile, Alabama, U.S.A.

Now
82 °F

Clear.


Feels Like: 91 °F
Forecast: 77 / 91 °F
Wind: 6 mph from Southwest

Location: Mobile Downtown Airport

Current Time: Jul 27, 2014 at 11:56:38 PM

Latest Report: Jul 27, 2014 at 10:53 PM


Visibility: 10 mi

Pressure: 30.05 "Hg

Humidity: 88%

Dew point: 78 °F

Location of MobileLocation

Historic Weather in Mobile — Graph

°F

Mobile temperature yesterday

Maximum temperature yesterday: 90 °F (at 2:53 PM)
Minimum temperature yesterday: 74 °F (at 3:53 AM)
Average temperature yesterday: 82 °F

Past Weeks' High & Low Weather Summary

 TemperatureHumidityPressure
High93 °F (Jul 27, 3:53 PM)100% (Jul 14, 4:53 AM)30.14 "Hg (Jul 14, 4:53 AM)
Low64 °F (Jul 17, 5:53 AM)42% (Jul 16, 3:53 PM)29.90 "Hg (Jul 15, 5:53 PM)
Average80 °F83%30.01 "Hg
* Reported Jul 12 10:53 PM — Jul 27 10:53 PM, Mobile, Weather by CustomWeather, © 2014

Note: Actual official high and low records may vary slightly from our data, if they occured in-between our weather recording intervals... More about our weather records

Advertising

Mobile weather history for previous 24 hours

 ConditionsComfort  
Time TempWeatherWind HumidityBarometerVisibility
10:53 PM
Jul 27
82 °FClear.6 mph88%30.05 "Hg10 mi
9:53 PM82 °FClear.3 mph85%30.05 "Hg10 mi
8:53 PM83 °FClear.6 mph82%30.03 "Hg10 mi
7:53 PM85 °FSunny.6 mph77%30.01 "Hg10 mi
6:53 PM87 °FSunny.7 mph65%30.01 "Hg10 mi
5:53 PM90 °FPassing clouds.8 mph68%30.01 "Hg10 mi
4:53 PM92 °FScattered clouds.9 mph64%30.01 "Hg10 mi
3:53 PM93 °FScattered clouds.N/A62%30.02 "Hg10 mi
2:53 PM91 °FScattered clouds.5 mph66%30.04 "Hg10 mi
1:53 PM92 °FScattered clouds.6 mph64%30.06 "Hg10 mi
12:53 PM89 °FScattered clouds.5 mph65%30.09 "Hg10 mi
11:53 AM90 °FScattered clouds.5 mph66%30.10 "Hg10 mi
10:53 AM89 °FScattered clouds.7 mph68%30.10 "Hg10 mi
9:53 AM87 °FPassing clouds.7 mph75%30.11 "Hg10 mi
8:53 AM84 °FSunny.9 mph80%30.10 "Hg10 mi
7:53 AM81 °FSunny.7 mph88%30.08 "Hg10 mi
6:53 AM79 °FClear.6 mph94%30.07 "Hg10 mi
5:53 AM79 °FClear.5 mph94%30.05 "Hg10 mi
4:53 AM79 °FClear.6 mph94%30.04 "Hg10 mi
3:53 AM79 °FClear.3 mph94%30.04 "Hg10 mi
2:53 AM80 °FClear.3 mph90%30.04 "Hg10 mi
1:53 AM80 °FClear.5 mph90%30.03 "Hg10 mi
12:53 AM80 °FClear.3 mph90%30.04 "Hg10 mi
11:53 PM
Jul 26
80 °FClear.3 mph90%30.06 "Hg10 mi
Weather by CustomWeather, © 2014

See weather overviewHow to use our weather pages